Simultaneous Nadir Overpasses (SNOs) Predictions

Prediction of SNOs between FY3D and AQUA Satellite Orbit:

Table of predicted SNOs for the next 14.0 days since TLE Epoch: 1/10/2025
Index Date (FY3D) Time (FY3D) Lat,Lon (FY3D) SZA (FY3D ) Date (AQUA) Time (AQUA) Lat,Lon (AQUA) SZA (AQUA ) Distance(km) Time Diff (sec)
1 01/12/2025 19:37:27 79.58,-130.22 101.51 01/12/2025 19:38:16 79.59,-130.32 101.51 2.04 49
2 01/12/2025 20:28:05 -79.38, 38.88 78.79 01/12/2025 20:27:29 -79.38, 38.84 78.78 0.81 36
3 01/15/2025 05:59:10 -79.66,-106.34 78.80 01/15/2025 06:00:06 -79.66,-106.25 78.82 1.90 56
4 01/15/2025 06:49:47 79.41, 63.29 100.83 01/15/2025 06:49:19 79.40, 63.28 100.83 0.41 28
5 01/17/2025 16:20:51 79.67, -81.75 100.75 01/17/2025 16:21:54 79.66, -81.68 100.72 1.52 63
6 01/17/2025 17:11:29 -79.46, 87.45 79.56 01/17/2025 17:11:07 -79.45, 87.53 79.57 1.96 22
7 01/20/2025 02:42:32 -79.69, -57.34 79.72 01/20/2025 02:43:40 -79.68, -57.23 79.75 2.27 68
8 01/20/2025 03:33:10 79.48, 111.97 99.96 01/20/2025 03:32:54 79.48, 111.99 99.96 0.42 16
9 01/22/2025 13:04:10 79.65, -32.33 99.69 01/22/2025 13:05:23 79.65, -32.35 99.67 0.46 73



Historial Predications of SNOs between FY3D and AQUA
